Regional Weather Roundup
Issued by NWS Jackson, KY

Home | Current Version | Previous Version | Text Only | Print | Product List | Glossary On
Versions: 1 2 3 4 5 6 7 8 9 10 11 12 13 14 15 16 17 18 19 20 21 22 23 24 25 26 27
000
ASUS43 KJKL 010510
RWRJKL

EAST KENTUCKY HOURLY WEATHER ROUNDUP
NATIONAL WEATHER SERVICE JACKSON KY
100 AM EDT WED JUN 01 2016

NOTE: "FAIR" INDICATES FEW OR NO CLOUDS BELOW 12,000 FEET WITH
NO SIGNIFICANT WEATHER AND/OR OBSTRUCTIONS TO VISIBILITY.

* THESE REPORTS ARE NOT UNDER NWS QUALITY CONTROL AND MAY NOT
  REPORT WEATHER SUCH AS PRECIPITATION AND FOG.

KYZ079-080-083-085-087-088-110-112-115-119-120-010600
...EASTERN KENTUCKY...

CITY           SKY/WX    TMP DP  RH WIND       PRES   REMARKS
JACKSON        PTCLDY    71  56  58 CALM      30.01S
LONDON         CLEAR     66  61  84 CALM      30.00R
SOMERSET*      CLEAR     63  63 100 CALM      29.99F
MONTICELLO*    CLEAR     64  63  96 W9        30.00S
WILLIAMSBURG*  CLEAR     61  61 100 CALM      30.00S
MIDDLESBORO*   CLEAR     64  63  94 CALM      30.01S
HARLAN APT*      N/A     64  63  94 CALM      30.02F
BLACK MTN*       N/A     64  59  82 SE3         N/A
PIKE CO APT*     N/A     72  60  66 CALM      30.01S
BIG SANDY APT* PTCLDY    67  61  79 CALM      30.00F
MOREHEAD APT*  PTCLDY    70  57  64 CALM      30.02S
ASHLAND*       PTCLDY    64  63  94 CALM      29.97S
$$

KYZ035-036-041-042-044-050-067-078-099-010600
...CENTRAL KENTUCKY...

CITY           SKY/WX    TMP DP  RH WIND       PRES   REMARKS
MT STERLING*   CLEAR     63  63 100 CALM      30.01S
FLEMING/MASON* CLEAR    N/A N/A N/A CALM      30.01R
DANVILLE*      CLEAR     64  63  94 CALM      30.00S
RICHMOND*      CLEAR     66  63  88 CALM      29.98S
LEXINGTON      CLEAR     69  60  73 E3        29.98F
FRANKFORT      PTCLDY    64  59  83 CALM      29.97F
LOUISVILLE     PTCLDY    76  58  53 CALM      29.96S
LEBANON*         N/A     68  64  88 CALM      29.98S
GLASGOW*       CLEAR     67  66  94 CALM      29.96F
BOWLING GREEN  CLEAR     70  65  84 CALM      29.95F
$$

KYZ091>093-OHZ055-061-077-WVZ005-015-034-035-042-010600
...SOUTHERN OHIO/WEST VIRGINIA...

CITY           SKY/WX    TMP DP  RH WIND       PRES   REMARKS
COVINGTON      CLEAR     67  61  81 CALM      29.99S
COLUMBUS       PTCLDY    70  57  63 NE6       30.01R
DAYTON         PTCLDY    72  56  57 E10       30.01F
WILMINGTON     MOCLDY    72  62  71 E6        30.01R
HUNTINGTON       N/A     66  59  78 CALM      29.98S
CHARLESTON       N/A     64  59  83 CALM      29.99S
PINEVILLE*       N/A     66  61  82 MISG      30.09S
BECKLEY          N/A     67  59  75 SE8       30.08S
BLUEFIELD        N/A     62  58  86 E5        30.10F
LOGAN CO APT*    N/A     70  55  60 CALM      30.02R
$$

VAZ002-007-008-TNZ017-027-036-066-071-010600
...SOUTHWEST VIRGINIA/EAST TENNESSEE...

CITY           SKY/WX    TMP DP  RH WIND       PRES   REMARKS
WISE*            N/A     68  54  60 CALM      30.09S
JONESVILLE*      N/A     64  63  94 CALM      30.03F
ABINGDON*        N/A     66  62  85 E5        30.06S
BRISTOL        CLEAR     65  61  87 CALM      30.02S
SEVIERVILLE*   CLEAR     64  63  94 CALM      29.98R
OAK RIDGE      CLEAR     70  63  78 CALM      29.99R
CROSSVILLE     CLEAR     66  63  90 CALM      30.03S
NASHVILLE      CLEAR     76  61  59 CALM      29.95F
$$

...KEY TO REMARKS...
VSB - VISIBILITY IN MILES
WCI - WIND CHILL INDEX
HX  - HEAT INDEX

$$




USA.gov is the U.S. government's official web portal to all federal, state and local government web resources and services.